• In Uzbekistan
  • List of Countries
  • For 7 days
  • Water Temperature
  • Satellite Maps
  • Weather Map
  • Weather Widgets
  • user-avatar
    Login

    Hourly Weather Kozani

    Today, 21 October, Saturday

    Time Temperature Precipitation Wind Pressure Humidity
    00:00 +15°C° 0 mm 1 mps 706 mmHg 66%
    01:00 +15°C° 0 mm 1 mps 706 mmHg 67%
    02:00 +14°C° 0 mm 1 mps 706 mmHg 69%
    03:00 +14°C° 0 mm 1 mps 706 mmHg 70%
    04:00 +14°C° 0 mm 1 mps 706 mmHg 72%
    05:00 +14°C° 0 mm 1 mps 706 mmHg 71%
    06:00 +15°C° 0 mm 1 mps 706 mmHg 70%
    07:00 +15°C° 0 mm 1 mps 706 mmHg 68%
    08:00 +18°C° 0 mm 1 mps 706 mmHg 60%
    09:00 +20°C° 0 mm 1 mps 707 mmHg 52%
    10:00 +22°C° 0 mm 1 mps 707 mmHg 44%
    11:00 +23°C° 0 mm 1 mps 707 mmHg 41%
    12:00 +24°C° 0 mm 1 mps 707 mmHg 38%
    13:00 +25°C° 0 mm 1 mps 706 mmHg 35%
    14:00 +24°C° 0 mm 1 mps 706 mmHg 36%
    15:00 +23°C° 0 mm 1 mps 706 mmHg 38%
    16:00 +23°C° 0 mm 1 mps 705 mmHg 40%
    17:00 +21°C° 0 mm 1 mps 705 mmHg 43%
    18:00 +20°C° 0 mm 1 mps 705 mmHg 46%
    19:00 +18°C° 0 mm 1 mps 705 mmHg 49%
    20:00 +18°C° 0 mm 1 mps 705 mmHg 52%
    21:00 +16°C° 0 mm 1 mps 705 mmHg 54%
    22:00 +15°C° 0 mm 1 mps 705 mmHg 56%
    23:00 +15°C° 0 mm 1 mps 705 mmHg 58%

    Tomorrow, 22 October, Sunday

    Time Temperature Precipitation Wind Pressure Humidity
    00:00 +15°C° 0 mm 1 mps 705 mmHg 60%
    01:00 +14°C° 0 mm 1 mps 705 mmHg 62%
    02:00 +14°C° 0 mm 1 mps 704 mmHg 64%
    03:00 +13°C° 0 mm 2 mps 704 mmHg 66%
    04:00 +13°C° 0 mm 2 mps 704 mmHg 68%
    05:00 +13°C° 0 mm 2 mps 704 mmHg 67%
    06:00 +14°C° 0 mm 1 mps 704 mmHg 66%
    07:00 +14°C° 0 mm 1 mps 704 mmHg 64%
    08:00 +16°C° 0 mm 1 mps 704 mmHg 55%
    09:00 +20°C° 0 mm 1 mps 705 mmHg 45%
    10:00 +22°C° 0 mm 1 mps 705 mmHg 35%
    11:00 +23°C° 0 mm 1 mps 705 mmHg 33%
    12:00 +24°C° 0 mm 1 mps 704 mmHg 30%
    13:00 +24°C° 0 mm 1 mps 704 mmHg 28%
    14:00 +24°C° 0 mm 1 mps 703 mmHg 32%
    15:00 +23°C° 0 mm 1 mps 703 mmHg 35%
    16:00 +22°C° 0 mm 1 mps 703 mmHg 39%
    17:00 +21°C° 0 mm 1 mps 703 mmHg 43%
    18:00 +19°C° 0 mm 1 mps 703 mmHg 48%
    19:00 +18°C° 0 mm 1 mps 703 mmHg 52%
    20:00 +16°C° 0 mm 1 mps 702 mmHg 55%
    21:00 +16°C° 0 mm 1 mps 702 mmHg 57%
    22:00 +15°C° 0 mm 1 mps 702 mmHg 60%
    23:00 +15°C° 0 mm 1 mps 702 mmHg 61%

    Day after tomorrow, 23 October, Monday

    Time Temperature Precipitation Wind Pressure Humidity
    00:00 +15°C° 0 mm 1 mps 702 mmHg 62%
    01:00 +15°C° 0 mm 1 mps 701 mmHg 64%
    02:00 +14°C° 0 mm 1 mps 701 mmHg 65%
    03:00 +14°C° 0 mm 1 mps 700 mmHg 66%
    04:00 +14°C° 0 mm 1 mps 700 mmHg 68%
    05:00 +14°C° 0 mm 1 mps 700 mmHg 67%
    06:00 +14°C° 0 mm 1 mps 699 mmHg 66%
    07:00 +15°C° 0 mm 1 mps 699 mmHg 65%
    08:00 +16°C° 0 mm 1 mps 699 mmHg 60%
    09:00 +18°C° 0 mm 2 mps 699 mmHg 55%
    10:00 +19°C° 0 mm 2 mps 699 mmHg 50%
    11:00 +19°C° 0.3 mm 2 mps 698 mmHg 51%
    12:00 +19°C° 0.3 mm 2 mps 698 mmHg 52%
    13:00 +20°C° 0.3 mm 3 mps 697 mmHg 52%
    14:00 +19°C° 0.6 mm 3 mps 697 mmHg 55%
    15:00 +18°C° 0.6 mm 3 mps 696 mmHg 57%
    16:00 +18°C° 0.6 mm 2 mps 696 mmHg 60%
    17:00 +17°C° 1.4 mm 2 mps 695 mmHg 65%
    18:00 +15°C° 1.4 mm 2 mps 695 mmHg 69%
    19:00 +14°C° 1.4 mm 2 mps 695 mmHg 74%
    20:00 +14°C° 0.8 mm 2 mps 695 mmHg 76%
    21:00 +13°C° 0.8 mm 2 mps 695 mmHg 78%
    22:00 +12°C° 0.8 mm 2 mps 694 mmHg 80%
    23:00 +12°C° 0.6 mm 2 mps 694 mmHg 80%

    24 October, Tuesday

    Time Temperature Precipitation Wind Pressure Humidity
    00:00 +12°C° 0.6 mm 2 mps 694 mmHg 80%
    01:00 +12°C° 0.6 mm 2 mps 694 mmHg 80%
    02:00 +10°C° 0.4 mm 2 mps 694 mmHg 81%
    03:00 +10°C° 0.4 mm 2 mps 694 mmHg 81%
    04:00 +10°C° 0.4 mm 2 mps 694 mmHg 82%
    05:00 +9°C° 0.5 mm 2 mps 694 mmHg 81%
    06:00 +9°C° 0.5 mm 3 mps 694 mmHg 80%
    07:00 +9°C° 0.5 mm 3 mps 694 mmHg 80%
    08:00 +9°C° 0.7 mm 3 mps 694 mmHg 76%
    09:00 +10°C° 0.7 mm 3 mps 694 mmHg 73%
    10:00 +10°C° 0.7 mm 3 mps 694 mmHg 70%
    11:00 +11°C° 0.8 mm 3 mps 694 mmHg 69%
    12:00 +11°C° 0.8 mm 3 mps 694 mmHg 68%
    13:00 +11°C° 0.8 mm 3 mps 694 mmHg 66%
    14:00 +11°C° 0.4 mm 3 mps 694 mmHg 68%
    15:00 +10°C° 0.4 mm 3 mps 694 mmHg 70%
    16:00 +10°C° 0.4 mm 3 mps 694 mmHg 71%
    17:00 +10°C° 1.1 mm 3 mps 695 mmHg 75%
    18:00 +9°C° 1.1 mm 3 mps 695 mmHg 79%
    19:00 +8°C° 1.1 mm 3 mps 695 mmHg 82%
    20:00 +8°C° 1.4 mm 3 mps 695 mmHg 84%
    21:00 +8°C° 1.4 mm 3 mps 696 mmHg 85%
    22:00 +8°C° 1.4 mm 3 mps 696 mmHg 86%
    23:00 +8°C° 1.8 mm 3 mps 696 mmHg 87%

    25 October, Wednesday

    Time Temperature Precipitation Wind Pressure Humidity
    00:00 +8°C° 1.8 mm 3 mps 696 mmHg 88%
    01:00 +8°C° 1.8 mm 3 mps 696 mmHg 88%
    02:00 +8°C° 2.1 mm 3 mps 697 mmHg 89%
    03:00 +8°C° 2.1 mm 3 mps 697 mmHg 89%
    04:00 +8°C° 2.1 mm 3 mps 697 mmHg 89%
    05:00 +8°C° 3 mm 3 mps 698 mmHg 89%
    06:00 +8°C° 3 mm 3 mps 698 mmHg 89%
    07:00 +8°C° 3 mm 3 mps 698 mmHg 89%
    08:00 +9°C° 2.1 mm 3 mps 699 mmHg 88%
    09:00 +9°C° 2.1 mm 3 mps 699 mmHg 87%
    10:00 +8°C° 2.1 mm 4 mps 700 mmHg 85%
    11:00 +8°C° 1.3 mm 4 mps 700 mmHg 85%
    12:00 +9°C° 1.3 mm 3 mps 701 mmHg 84%
    13:00 +9°C° 1.3 mm 3 mps 701 mmHg 84%
    14:00 +9°C° 0.3 mm 3 mps 701 mmHg 83%
    15:00 +9°C° 0.3 mm 3 mps 702 mmHg 83%
    16:00 +9°C° 0.3 mm 3 mps 702 mmHg 83%
    17:00 +9°C° 0.1 mm 2 mps 703 mmHg 84%
    18:00 +9°C° 0.1 mm 2 mps 704 mmHg 85%
    19:00 +9°C° 0.1 mm 2 mps 704 mmHg 86%
    20:00 +9°C° 0.1 mm 2 mps 705 mmHg 86%
    21:00 +8°C° 0.1 mm 2 mps 705 mmHg 86%
    22:00 +8°C° 0.1 mm 2 mps 706 mmHg 86%
    23:00 +8°C° 0 mm 2 mps 706 mmHg 86%

    26 October, Thursday

    Time Temperature Precipitation Wind Pressure Humidity
    00:00 +8°C° 0 mm 2 mps 706 mmHg 86%
    01:00 +7°C° 0 mm 2 mps 706 mmHg 87%
    02:00 +7°C° 0 mm 2 mps 706 mmHg 87%
    03:00 +7°C° 0 mm 2 mps 706 mmHg 88%
    04:00 +7°C° 0 mm 1 mps 707 mmHg 88%
    05:00 +6°C° 0 mm 2 mps 707 mmHg 87%
    06:00 +6°C° 0 mm 2 mps 707 mmHg 86%
    07:00 +6°C° 0 mm 2 mps 708 mmHg 84%
    08:00 +8°C° 0 mm 2 mps 708 mmHg 75%
    09:00 +10°C° 0 mm 2 mps 708 mmHg 65%
    10:00 +12°C° 0 mm 2 mps 708 mmHg 55%
    11:00 +13°C° 0 mm 2 mps 708 mmHg 50%
    12:00 +14°C° 0 mm 2 mps 708 mmHg 45%
    13:00 +14°C° 0 mm 2 mps 708 mmHg 40%
    14:00 +14°C° 0 mm 2 mps 708 mmHg 42%
    15:00 +13°C° 0 mm 2 mps 708 mmHg 44%
    16:00 +13°C° 0 mm 2 mps 708 mmHg 45%
    17:00 +11°C° 0 mm 1 mps 708 mmHg 48%
    18:00 +10°C° 0 mm 1 mps 708 mmHg 50%
    19:00 +9°C° 0 mm 1 mps 708 mmHg 52%
    20:00 +9°C° 0 mm 1 mps 709 mmHg 52%
    21:00 +8°C° 0 mm 1 mps 709 mmHg 53%
    22:00 +8°C° 0 mm 1 mps 709 mmHg 53%
    23:00 +7°C° 0 mm 1 mps 709 mmHg 53%
    Show more